Regional Weather Roundup
Issued by NWS Pendleton, OR

Home | Current Version | Previous Version | Text Only | Print | Product List | Glossary On
Versions: 1 2 3 4 5 6 7 8 9 10 11 12 13 14 15 16 17 18 19 20 21 22 23 24 25 26 27 28 29 30 31 32 33 34 35 36 37 38 39 40 41 42 43 44 45 46 47 48 49 50
000
ASUS46 KPDT 302004
RWRPDT
PENDLETON REGIONAL WEATHER ROUNDUP
NATIONAL WEATHER SERVICE PENDLETON OREGON
100 PM PDT SUN AUG 30 2015

NOTE: FAIR INDICATES FEW OR NO CLOUDS BELOW 12,000 FEET WITH NO
SIGNIFICANT WEATHER AND/OR OBSTRUCTIONS TO VISIBILITY.

# INDICATES UNOFFICIAL STATION AND DATA

WAZ520-302110-
EAST SLOPES OF WASHINGTON CASCADES

CITY            SKY/WX      TMP DP  RH  WIND    PRES   REMARKS
#BULLFROG       N/A         56  48  74  N5      N/A
#BULLFROG 2SW   N/A         55  48  77  N6      27.55R
#BUMPING DAM    N/A         50  N/A N/A S6      N/A
#CLE ELUM HS    N/A         59  46  62  NW6     29.89R
#CLE ELUM LAKE  N/A         54  45  71  W1      29.87R
#CLIFFDEL 2NW   N/A         58  52  80  W1      N/A
#EASTON DOT     N/A         52  45  77  NE2     N/A
#ELK HTS DOT    N/A         58  57  96  W6      N/A
#GLENWOOD       N/A         60  52  75  S3      29.93S
#MANASTASH CYN  N/A         62  45  54  NE1     29.90S
#NELSON         N/A         57  51  80  CALM    29.89R
#NELSON 3SW     N/A         52  45  77  CALM    30.06R
#NILE           N/A         64  40  41  W6      29.13S
#PEOH POINT     N/A         48  47  96  SW1     N/A
#RONALD 2NW     N/A         56  28  34  E2      29.83R
#SNOWDEN        N/A         55  49  80  NW3     N/A
#TEANAWAY 4NE   N/A         61  48  62  CALM    N/A
#TROUT LAKE 1NE N/A         59  50  72  W5      29.96R
$$

WAZ521-302110-
SIMCOE HIGHLANDS

CITY            SKY/WX      TMP DP  RH  WIND    PRES   REMARKS
#BICKLETON HS   N/A         59  35  40  W15G26  N/A
#SATUS PASS DOT N/A         58  41  53  NW3     N/A
#CENTERVILLE 4W N/A         60  49  67  CALM    29.75R
#CENTERVILLE 1SWN/A         59  48  67  W16     29.93R
#GOLDENDALE     N/A         62  50  65  W13     N/A
#GOLDENDALE 1NE N/A         61  39  44  SW7     N/A
#GOLDENDALE 5WNWN/A         60  49  67  W18     29.93R
#GOODNOE HILLS  N/A         65  50  58  W23     N/A
#LYLE 6NE       N/A         58  52  80  SW6     29.94R
$$

WAZ026-302110-
KITTITAS VALLEY

CITY            SKY/WX      TMP DP  RH  WIND    PRES   REMARKS
ELLENSBURG AP   PTCLDY      69  45  42  NW16    29.91S
#ELLENSBURG CWU N/A         63  47  56  N12     29.82S
#ELLENSBURG 3NE N/A         62  47  58  N7      29.91S
#ELLENSBURG 1E  N/A         66  48  52  CALM    N/A
#KITTITAS 4N    N/A         64  45  50  N10     29.92R
#KITTITAS 3S    N/A         61  51  70  CALM    29.85R
#MANASTASH RDG  N/A         60  60  100 NE1     N/A
#ROCKY CYN DOT  N/A         60  46  60  W9      N/A
#RYEGRASS DOT   N/A         59  45  60  W14     N/A
#THORP 6N       N/A         59  48  67  W12G24  29.88R
$$

WAZ027-302110-
YAKIMA VALLEY

CITY            SKY/WX      TMP DP  RH  WIND    PRES   REMARKS
SUNNYSIDE AP    PTCLDY      69  49  49  SW12    29.92S
YAKIMA AIRPORT  MOCLDY      70  43  38  NW7     29.91S
YAKIMA-VAGABOND PTCLDY      69  42  37  SW15    29.91S
#DONALD 2NE     N/A         73  33  23  SE3     28.77S
#GRANDVIEW      N/A         69  45  42  W3      29.90F
#MABTON         N/A         69  46  44  W10     29.91F
#MOXEE 2E       N/A         70  25  18  SW5     29.84F
#NACHES 2SW     N/A         66  48  52  SW9     29.91S
#PARKER DOT     N/A         67  44  43  NE7     N/A
#SELAH 8E       N/A         65  43  45  W13     N/A
#TERRACE HTS    N/A         71  47  42  W1      29.84S
#TOPPENISH      N/A         69  44  40  W12     29.80F
#I82 S UMTANUM RN/A         62  45  54  S15     N/A
#UNION GAP DOT  N/A         67  43  42  S8      N/A
#WAPATO 4NE     N/A         73  33  23  SE3     28.77S
#W YAKIMA       N/A         68  44  42  W3      29.87S
#WHITE SWAN 5E  N/A         71  49  46  S20G26  29.88S
#WILEY CITY 3W  N/A         69  38  32  W1      29.88R
#ZILLAH DOT     N/A         68  43  40  SW8     N/A
$$

WAZ028-302110-
LOWER COLUMBIA BASIN...WASHINGTON

CITY            SKY/WX      TMP DP  RH  WIND    PRES   REMARKS
PASCO           PTCLDY      74  47  38  SW20G28 29.92F
#BENTON CITY    N/A         69  50  51  W6      29.80S
#CONNELL 5N     N/A         64  54  70  SW7     29.88R
#CONNELL 5NW    N/A         63  55  75  SW7     29.84S
#ELTOPIA 6NW    N/A         66  52  61  SW13G26 28.89S
#KAHLOTUS       N/A         63  51  65  W25G35  29.89R
#KENNEWICK      N/A         55  48  77  N6      27.55R
#KENNEWICK 3S   N/A         69  50  51  NW9G25  29.90F
#PATERSON       N/A         69  48  47  W15     29.92S
#PROSSER DOT    N/A         70  46  42  W9      N/A
#PROSSER        N/A         69  45  42  W6      29.89S
#SAGEMOOR 2W    N/A         67  50  54  SW13    29.75S
#TOUCHET 2S     N/A         66  51  58  SW7     29.93R
#WEST PASCO     N/A         73  52  48  W7      29.88R
$$

WAZ029-302110-
FOOTHILLS OF THE BLUES...WASHINGTON

CITY            SKY/WX      TMP DP  RH  WIND    PRES   REMARKS
WALLA WALLA AP  LGT RAIN    61  54  78  S10     29.99S
#DAYTON SCHOOL  N/A         57  51  80  SW2     29.99R
#LOWDEN 2SE     N/A         64  52  65  SW7     29.94S
#PLEASANT VIEW 1N/A         58  54  87  SE16    29.93S
#PRESCOTT       N/A         58  55  90  S1      29.94F
#SUDBURY        N/A         64  N/A N/A CALM    N/A
#WHITMAN COLLEGEN/A         60  55  84  S6      30.00R
#WAITSBURG 8N   N/A         56  44  64  S14     29.82S
#WALLA WALLA U  N/A         62  54  75  SW6     29.94S
#WHITMAN MISSIONN/A         63  53  70  S9      29.96S
$$

WAZ030-302110-
BLUE MOUNTAINS...WASHINGTON

CITY            SKY/WX      TMP DP  RH  WIND    PRES   REMARKS
#SKI BLUEWOOD   N/A         47  44  89  S2      30.01R
$$

ORZ009-041-WAZ024-302110-
COLUMBIA RIVER GORGE

CITY            SKY/WX      TMP DP  RH  WIND    PRES   REMARKS
THE DALLES AP   MOCLDY      67  52  59  N13     29.98S
#ARLINGTON AIRPON/A         67  50  54  W16     29.82S
#CELILO DOT     N/A         68  55  63  W6      N/A
#MARYHILL       N/A         64  48  56  CALM    N/A
#MOSIER 1S      N/A         64  48  56  W3      29.99S
#RUFUS DOT      N/A         67  54  63  W12     N/A

$$

ORZ510-302110-
NORTH CENTRAL OREGON

CITY            SKY/WX      TMP DP  RH  WIND    PRES   REMARKS
#CHENOWITH 1W   N/A         59  53  80  W17     N/A
#DUFUR 9E       N/A         55  49  80  NW7     29.99R
#GRASS VALLEY 1SN/A         65  46  50  W16G26  29.98S
#KENT DOT       N/A         62  38  41  N20     N/A
#MAUPIN SCHOOL  N/A         67  49  52  W7      30.01R
#MORO SCHOOL    N/A         60  54  81  NW8     30.01S
#SHANIKO 5WSW   N/A         56  39  53  SW23    N/A
#SHANIKO 4NW    N/A         55  41  59  W9      30.04R
#TYGH VALLEY 2NEN/A         66  47  50  SW12    29.93F
#WAPANITIA AIRPON/A         64  46  52  NW7     29.96R
#WASCO DOT      N/A         63  53  70  W3      N/A
#WASCO 5NE      N/A         65  50  58  W10     29.96R
$$

ORZ511-302110-
CENTRAL OREGON

CITY            SKY/WX      TMP DP  RH  WIND    PRES   REMARKS
BEND AIRPORT    MOCLDY      57  45  64  NE5     30.06R
PRINEVILLE AP   CLOUDY      59  46  62  VRB5    30.06R
REDMOND AIRPORT CLOUDY      61  44  53  CALM    30.04S
#BEND 1SW       N/A         65  45  48  W1      N/A
#BEND-AWBREY    N/A         60  47  62  CALM    29.94R
#BEND-KIM LN    N/A         61  48  62  CALM    30.03R
#CULVER         N/A         61  45  56  W7      30.00R
#LAKE BILLY CHINN/A         61  22  22  NW14    30.07S
#MADRAS         N/A         60  42  51  N8      N/A
#POWELL BUTTE 3EN/A         56  48  74  N8      N/A
#POWELL BUTTE   N/A         60  47  62  W3      29.68R
#PRINEVILLE 3N  N/A         61  49  65  S3      29.92R
#WARM SPRINGS   N/A         67  47  49  S1      29.99R

$$


ORZ509-302110-
EAST SLOPES OF OREGON CASCADES

CITY            SKY/WX      TMP DP  RH  WIND    PRES   REMARKS
#BLUE BOX PASS  N/A         48  -4  11  NW6     N/A
#CAMP SHERMAN   N/A         60  46  60  SW1     29.96S
#LA PINE 4NW    N/A         55  47  74  N1      30.00R
#SISTERS AIRPOR N/A         60  51  72  N10     30.17S
#SISTERS 3N     N/A         63  46  54  N5      30.08R
#SUNRIVER       N/A         55  46  72  SW5     29.84R
#TUMALO 3W      N/A         61  44  53  W10     29.82R

$$

ORZ044-302110-
LOWER COLUMBIA BASIN...OREGON

CITY            SKY/WX      TMP DP  RH  WIND    PRES   REMARKS
HERMISTON       LGT RAIN    69  53  57  W13     29.96S
#BOARDMAN SCHOOLN/A         69  48  47  SW10    29.96S
#BOARDMAN 8SW   N/A         69  50  51  W20     29.94R
#ECHO 8SW       N/A         68  51  55  W8      29.97S
#IONE SCHOOL    N/A         64  45  50  W9      29.95R
#IRRIGON 4NW    N/A         71  49  46  SW15G24 N/A
#UMATILLA SCHOOLN/A         67  58  73  W1      29.96F
#UMATILLA       N/A         68  50  53  SW9     29.87S
$$

ORZ507-302110-
NORTHERN FOOTHILLS OF THE BLUES

CITY            SKY/WX      TMP DP  RH  WIND    PRES   REMARKS
PENDLETON AIRPT CLOUDY      61  50  67  SW8     29.99R
#ADAMS 3WNW     N/A         56  54  93  SW7     29.96R
#ATHENA         N/A         57  51  80  SW3     29.98R
#CAYUSE         N/A         58  53  83  W3      29.96R
#HELIX SCHOOL   N/A         58  52  80  S5      29.95R
#HELIX 3N       N/A         57  51  80  SW13    29.96S
#HELIX 6SW      N/A         59  51  75  SW13    29.98S
#HOLDMAN 5SE    N/A         63  51  65  SW12    29.99S
#HOLDMAN 6E     N/A         61  48  62  N15     29.75R
#M-F GROVE ELEM N/A         62  51  67  W6      29.98R
#M-FREEWATER 5SEN/A         59  52  78  SW1     30.01R
#PENDLETON DNTN N/A         62  48  60  CALM    30.01S
#PDT AQUATIC CTRN/A         61  47  60  S6      29.97R
#PDT SUNRIDGE   N/A         60  52  75  CALM    30.00S
#PENDLETON 7NW  N/A         61  53  75  CALM    32.07S
#TUTUILLA       N/A         59  53  80  CALM    29.99R
#UMAPINE 2E     N/A         62  53  72  SW3     29.96R
#WESTON SCHOOL  N/A         56  50  80  N6      29.92R

$$

ORZ508-302110-
SOUTHERN FOOTHILLS OF THE BLUES

CITY            SKY/WX      TMP DP  RH  WIND    PRES   REMARKS
#AJAX           N/A         63  40  43  S16G26  29.93F
#CONDON SCHOOL  N/A         59  47  64  SW9     29.98R
#CONDON 5W      N/A         59  42  53  W17G28  29.98F
#FOSSIL SCHOOL  N/A         66  51  58  CALM    29.94S
#HEPPNER EOC    N/A         63  46  54  W13     29.87R
#HEPPNER 4NE    N/A         60  46  60  W14     29.91S
#LEXINGTON 2SE  N/A         65  50  58  N8      29.96R
#OLEX 4N        N/A         64  50  60  SW8     29.97S
#RUGGS 5NE      N/A         61  42  50  W15G26  30.17S
#RUGGS 2SW      N/A         62  43  50  W16G25  29.93S

$$

ORZ502-503-302110-
BLUE MOUNTAINS

CITY            SKY/WX      TMP DP  RH  WIND    PRES   REMARKS
MEACHAM         LGT RAIN    53  50  89  VRB3    30.05R
#BATTLE MTN DOT N/A         51  51  100 CALM    N/A
#HEPPNER 15SE   N/A         50  46  86  CALM    29.95R
#LONG CREEK HS  N/A         55  50  83  CALM    30.00R
#N POWDER DOT   N/A         68  49  51  NE3     N/A
#PIKES PEAK     N/A         49  48  96  SW25G32 27.99S WCI 41
#TOLLGATE       N/A         46  44  93  SW5     29.91S
#TROY SCHOOL    N/A         68  53  59  S7      29.74R
#UKIAH          N/A         54  49  83  SE3     29.99R
#WESTON 4E      N/A         50  48  93  SW3     29.88R
$$

ORZ505-302110-
JOHN DAY BASIN

CITY            SKY/WX      TMP DP  RH  WIND    PRES   REMARKS
JOHN DAY        CLOUDY      64  42  45  W14     30.02S
#JOHN DAY KJDY  N/A         67  63  87  W7      30.26R
#DAYVILLE SCHOOLN/A         69  46  44  W3      29.97F
#MITCHELL       N/A         57  53  86  CALM    30.20R
#MITCHELL 8NW   N/A         54  45  71  W3      30.12R
#MONUMENT HS    N/A         58  49  72  NW7     30.03R
#SPRAY SCHOOL   N/A         60  N/A N/A CALM    N/A
$$

ORZ506-302110-
OCHOCO AND JOHN DAY HIGHLANDS

CITY            SKY/WX      TMP DP  RH  WIND    PRES   REMARKS
#PINE MTN OBS   N/A         48  41  77  S3      N/A
#PRAIRIE CITY   N/A         65  45  48  NW3     29.91F
#SENECA         N/A         63  N/A N/A N5      N/A
#SENECA 9NW     N/A         60  40  47  SW2     29.89R
$$

ORZ049-302110-
GRANDE RONDE VALLEY

CITY            SKY/WX      TMP DP  RH  WIND    PRES   REMARKS
LA GRANDE       CLOUDY      57  43  59  N8      29.98R
#COVE           N/A         59  54  83  CALM    30.01R
#COVE SCHOOL    N/A         59  51  75  CALM    30.01R
#COVE 6NW       N/A         59  50  72  W7      29.96R
#ELGIN 3N       N/A         62  45  54  W6      29.96R
#ELGIN 1E       N/A         62  46  56  W1      N/A
#ISLAND CITY 4N N/A         65  59  81  CALM    29.99R
#LADD CYN DOT   N/A         65  47  52  E1      N/A
#LA GRANDE ELEM N/A         59  51  75  CALM    30.00R
#UNION 1S       N/A         62  48  60  NW1     29.80R
$$

ORZ050-302110-
WALLOWA COUNTY

CITY            SKY/WX      TMP DP  RH  WIND    PRES   REMARKS
#ENTERPRISE HS  N/A         67  43  42  SW1     29.97S
#IMNAHA SCHOOL  N/A         76  42  30  S10     29.87S
#IMNAHA 10S     N/A         71  41  34  SW14G26 29.93S
#JOSEPH 3N      N/A         67  35  30  W1      29.98F
#JOSEPH 3W      N/A         65  37  35  E6      29.84S
#LOSTINE        N/A         66  44  45  NW5     29.65R
#MT HOWARD 8000 N/A         45  36  70  SW3     30.11F
#PROMISE 1S     N/A         54  47  77  E12     30.03R
#WALLOWA SCHOOL N/A         61  46  58  W3      29.94R



$$



USA.gov is the U.S. government's official web portal to all federal, state and local government web resources and services.